Weather Roundup
Issued by NWS Springfield, MO

Home | Current Version | Previous Version | Text Only | Print | Product List | Glossary On
Versions: 1 2 3 4 5 6 7 8 9 10 11 12 13 14 15 16 17 18 19 20 21 22 23 24 25 26 27 28 29 30 31 32 33 34 35 36 37 38 39 40 41 42 43 44 45 46 47 48 49 50
661
NZUS99 KSGF 260557
HRRSGF

HOURLY WEATHER
NATIONAL WEATHER SERVICE SPRINGFIELD MO
100 AM CDT TUE JUL 26 2016

......SGF CWA......

CITY           SKY/WX    TMP DP  RH WIND       PRES   REMARKS
SPRINGFIELD    CLEAR     75  71  87 NE6       30.03F
6HR MIN TEMP:  75; 6HR MAX TEMP:  84;

JOPLIN         CLEAR     74  73  97 E3        30.04R
6HR MIN TEMP:  74; 6HR MAX TEMP:  82;

WEST PLAINS    CLOUDY    76  73  91 CALM      30.05F
6HR MIN TEMP:  75; 6HR MAX TEMP:  84; 6HR PCP:  0.08;

ROLLA          CLEAR     72  70  93 NE5       30.03F
6HR MIN TEMP:  72; 6HR MAX TEMP:  81;


......SURROUNDING SGF CWA......

CITY           SKY/WX    TMP DP  RH WIND       PRES   REMARKS
CHANUTE        CLOUDY    76  73  91 E6        30.04R
PARSONS          N/A    N/A N/A N/A MISG      30.04S
COFFEYVILLE    CLOUDY    76  74  93 CALM      30.02S
EMPORIA        MOCLDY    74  72  93 E3        30.06R
HARRISON AR    CLOUDY    74  73  97 CALM      30.04S

......KANSAS AND MISSOURI......

CITY           SKY/WX    TMP DP  RH WIND       PRES   REMARKS
KANSAS CTY INT PTCLDY    75  69  81 NE6       30.06F
SEDALIA        PTCLDY    73  70  90 CALM      30.05F
ST JOSEPH      PTCLDY    68  66  93 N3        30.06S
ST LOUIS       CLOUDY    80  74  81 N5        30.02F
WICHITA        MOCLDY    77  71  82 E6        30.06R
TOPEKA         MOCLDY    74  67  78 CALM      30.06R
OLATHE         MOCLDY    75  68  78 NE3       30.05F

......TENNESSEE......

CITY           SKY/WX    TMP DP  RH WIND       PRES   REMARKS
MEMPHIS        NOT AVBL
NASHVILLE      CLEAR     79  72  79 N5        30.03R

......ARKANSAS.......

CITY           SKY/WX    TMP DP  RH WIND       PRES   REMARKS
FAYETTEVILLE   PTCLDY    74  73  97 CALM      30.03F
FT SMITH       CLEAR     79  74  84 E7        29.98R
LITTLE ROCK    PTCLDY    83  76  79 SE3       29.96R HX  91

......OKLAHOMA.......

CITY           SKY/WX    TMP DP  RH WIND       PRES   REMARKS
TULSA          CLOUDY    81  74  79 N5        29.99S
PONCA CITY     MOCLDY    78  70  76 SE15      30.03S
MCALESTER      CLOUDY    81  74  79 CALM      30.00R
OKLAHOMA CITY  TSTM      73  72  96 NE21G33   30.04R FOG

......IOWA............

CITY           SKY/WX    TMP DP  RH WIND       PRES   REMARKS
DES MOINES     NOT AVBL
QUAD CITIES    CLOUDY    69  65  86 CALM      30.04S

......ILLINOIS........

CITY           SKY/WX    TMP DP  RH WIND       PRES   REMARKS
QUINCY         NOT AVBL
CHICAGO        CLOUDY    74  64  71 E3        30.03R




USA.gov is the U.S. government's official web portal to all federal, state and local government web resources and services.